Wenatchee, WA

4:28 PM PST on February 24, 2018 (GMT -0800)
Pangborn Memorial

Weather History for KEAT - May, 2014

Change the Weather History Date:

Saturday, May 10, 2014

  Actual Average Record
Temperature  
Mean Temperature 48 °F 52 °F  
Max Temperature 58 °F 64 °F 89 °F (1969)
Min Temperature 38 °F 40 °F 36 °F (1970)
Degree Days  
Heating Degree Days 17 13  
Month to date heating degree days 112 145  
Since 1 July heating degree days 6840 6724  
Cooling Degree Days 0 0  
Month to date cooling degree days 0 0  
Year to date cooling degree days 0 0  
Growing Degree Days 6 (Base 50)    
Moisture  
Dew Point 30 °F    
Average Humidity 0    
Maximum Humidity 0    
Minimum Humidity 0    
Precipitation  
Precipitation T in 0.05 in 0.50 in (1975)
Month to date precipitation 0.39 0.42  
Year to date precipitation 6.96 6.69  
Snow  
Snow 0.00 in 0.00 in - ()
Month to date snowfall 0.0 0.2  
Since 1 July snowfall 31.0 53.8  
Snow Depth 0.00 in    
Sea Level Pressure  
Sea Level Pressure 30.00 in    
Wind  
Wind Speed 12 mph (WNW)    
Max Wind Speed 24 mph    
Max Gust Speed 0 mph    
Visibility 10 miles    
Events      
T = Trace of Precipitation, MM = Missing Value Source: NWS Daily Summary

Daily Weather History Graph

Daily Weather History Graph

Search for Another Location

Airport or City:

Trip Planner

Search our weather history database for the weather conditions in past years. The results will help you decide how hot, cold, wet, or windy it might be!

Date:

Astronomy

May. 10, 2014 Rise Set
Actual Time 5:30 AM PDT 8:24 PM PDT
Civil Twilight 4:54 AM PDT 9:00 PM PDT
Nautical Twilight 4:09 AM PDT 9:46 PM PDT
Astronomical Twilight 3:14 AM PDT 10:41 PM PDT
Moon 4:09 PM PDT (5/10) 3:24 AM PDT (5/10)
Length of Visible Light 16h 05m
Length of Day
14h 54m
Waxing Gibbous, 83% of the Moon is Illuminated
May 10
Waxing Gibbous
May 14
Full
May 21
Last Quarter
May 28
New
Jun 5
First Quarter

Hourly Weather History & Observations

Time (PDT) Temp. Windchill Dew Point Humidity Pressure Visibility Wind Dir Wind Speed Gust Speed Precip Events Conditions
12:55 AM 48.9 °F - 30.0 °F 48% 29.88 in 10.0 mi West 15.0 mph - N/A   Clear
1:55 AM 48.0 °F - 30.0 °F 50% 29.89 in 10.0 mi WNW 12.7 mph - N/A   Clear
2:55 AM 48.0 °F - 30.9 °F 52% 29.90 in 10.0 mi West 11.5 mph - N/A   Mostly Cloudy
3:55 AM 46.9 °F - 30.9 °F 54% 29.91 in 10.0 mi West 8.1 mph - N/A   Partly Cloudy
4:55 AM 46.0 °F 43.1 °F 30.9 °F 56% 29.93 in 10.0 mi WNW 5.8 mph - N/A   Clear
5:55 AM 45.0 °F - 30.9 °F 58% 29.94 in 10.0 mi Calm Calm - N/A   Scattered Clouds
6:55 AM 46.9 °F - 32.0 °F 56% 29.97 in 10.0 mi North 4.6 mph - N/A   Overcast
7:55 AM 50.0 °F - 32.0 °F 50% 29.99 in 10.0 mi NNW 3.5 mph - N/A   Mostly Cloudy
8:55 AM 55.0 °F - 30.0 °F 38% 29.99 in 10.0 mi NW 16.1 mph - N/A   Clear
9:55 AM 57.9 °F - 28.9 °F 33% 29.99 in 10.0 mi WNW 13.8 mph - N/A   Clear
10:55 AM 60.1 °F - 27.0 °F 28% 30.00 in 10.0 mi West 6.9 mph 18.4 mph N/A   Clear
11:55 AM 61.0 °F - 26.1 °F 26% 30.00 in 10.0 mi North - - N/A   Clear
12:55 PM 64.0 °F - 25.0 °F 23% 29.99 in 10.0 mi WNW 8.1 mph - N/A   Clear
1:55 PM 66.0 °F - 28.0 °F 24% 29.99 in 10.0 mi West 8.1 mph 20.7 mph N/A   Clear
2:55 PM 68.0 °F - 27.0 °F 21% 29.99 in 10.0 mi WNW 18.4 mph 25.3 mph N/A   Clear
3:55 PM 66.9 °F - 27.0 °F 22% 30.00 in 10.0 mi WNW 21.9 mph - N/A   Clear
4:55 PM 66.9 °F - 28.9 °F 24% 30.01 in 10.0 mi WNW 23.0 mph 31.1 mph N/A   Clear
5:55 PM 64.9 °F - 30.0 °F 27% 30.04 in 10.0 mi WNW 24.2 mph 32.2 mph N/A   Clear
6:55 PM 63.0 °F - 30.0 °F 29% 30.05 in 10.0 mi WNW 21.9 mph 32.2 mph N/A   Clear
7:55 PM 60.1 °F - 30.9 °F 33% 30.08 in 10.0 mi WNW 19.6 mph 27.6 mph N/A   Clear
8:55 PM 57.0 °F - 32.0 °F 39% 30.11 in 10.0 mi WNW 17.3 mph - N/A   Clear
9:55 PM 55.0 °F - 32.0 °F 42% 30.14 in 10.0 mi WNW 13.8 mph - N/A   Clear
10:55 PM 53.1 °F - 33.1 °F 47% 30.15 in 10.0 mi NW 10.4 mph - N/A   Clear
11:55 PM 52.0 °F - 33.1 °F 49% 30.17 in 10.0 mi NW 9.2 mph - N/A   Clear